1495663200.87,39167,14.44,73464.3,-6.05,-6.69,-6.59,0,*5A
1495663202.07,39168,14.44,73464.5,-6.01,-6.63,-6.69,0,*58
1495663203.27,39169,14.44,73466.8,-6.01,-6.55,-6.51,0,*57
1495663204.47,39170,14.44,73466.8,-6.01,-6.55,-6.55,0,*5B
1495663205.66,39171,14.44,73466.0,-6.01,-6.55,-6.55,0,*5A
1495663206.88,39172,14.44,73466.5,-6.01,-6.69,-6.63,0,*53
1495663208.1,39173,14.44,73464.3,-6.01,-6.55,-6.63,0,*5D
1495663209.34,39174,14.44,73462.0,-5.99,-6.55,-6.63,0,*58
1495663210.57,39175,14.44,73462.5,-5.99,-6.51,-6.55,0,*58
1495663211.78,39176,14.44,73462.3,-5.99,-6.55,-6.55,0,*5F
1495663213.03,39177,14.44,73466.3,-5.99,-6.55,-6.63,0,*5B
1495663214.27,39178,14.44,73464.3,-5.99,-6.69,-6.63,0,*5B
1495663215.5,39179,14.44,73464.0,-5.99,-6.63,-6.69,0,*5A
1495663216.76,39180,14.44,73460.0,-5.99,-6.63,-6.63,0,*56
1495663218.03,39181,14.44,73464.8,-5.99,-6.63,-6.63,0,*57
1495663219.29,39182,14.44,73462.3,-5.99,-6.63,-6.63,0,*54
1495663220.48,39183,14.44,73460.3,-5.97,-6.59,-6.51,0,*53
1495663221.74,39184,14.44,73464.0,-5.99,-6.63,-6.63,0,*52
1495663222.97,39185,14.44,73464.8,-5.99,-6.55,-6.51,0,*57
1495663224.19,39186,14.44,73462.5,-5.99,-6.51,-6.55,0,*54
1495663225.41,39187,14.44,73464.8,-5.99,-6.51,-6.51,0,*51
1495663226.63,39188,14.44,73460.3,-5.99,-6.55,-6.55,0,*5E
1495663227.83,39189,14.44,73466.3,-5.97,-6.51,-6.51,0,*51
1495663229.03,39190,14.44,73464.8,-5.97,-6.47,-6.51,0,*5E
1495663230.23,39191,14.44,73464.0,-5.97,-6.51,-6.47,0,*5F
1495663231.43,39192,14.44,73466.3,-5.95,-6.47,-6.51,0,*5E
1495663232.64,39193,14.44,73464.0,-5.95,-6.35,-6.35,0,*58
1495663233.83,39194,14.44,73466.0,-5.95,-6.47,-6.39,0,*56
1495663235.03,39195,14.44,73466.5,-5.97,-6.51,-6.51,0,*5C
1495663236.24,39196,14.44,73466.5,-5.95,-6.59,-6.59,0,*5D
1495663237.44,39197,14.44,73466.0,-5.95,-6.47,-6.47,0,*5C
1495663238.63,39198,14.44,73466.5,-5.97,-6.47,-6.51,0,*56
1495663239.84,39199,14.44,73470.3,-5.95,-6.47,-6.47,0,*52
1495663241.04,39200,14.44,73466.5,-5.95,-6.51,-6.47,0,*56
1495663242.24,39201,14.44,73464.0,-5.95,-6.47,-6.39,0,*59
1495663243.47,39202,14.44,73462.8,-5.93,-6.51,-6.47,0,*52
1495663244.7,39203,14.44,73468.5,-5.93,-6.59,-6.51,0,*5C
1495663245.93,39204,14.44,73470.3,-5.93,-6.59,-6.51,0,*5B
1495663247.18,39205,14.44,73466.8,-5.93,-6.63,-6.59,0,*5B
1495663248.41,39206,14.44,73466.5,-5.93,-6.59,-6.59,0,*51
1495663249.68,39207,14.44,73466.8,-5.93,-6.63,-6.63,0,*50
1495663250.87,39208,14.44,73470.5,-5.91,-6.69,-6.59,0,*5E
1495663252.1,39209,14.44,73470.3,-5.93,-6.73,-6.73,0,*5E
1495663253.32,39210,14.44,73466.5,-5.93,-6.73,-6.77,0,*52
1495663254.54,39211,14.44,73466.3,-5.93,-6.59,-6.73,0,*5F
1495663255.77,39212,14.44,73466.8,-5.93,-6.59,-6.51,0,*5C
1495663257.0,39213,14.44,73470.3,-5.93,-6.51,-6.59,0,*5D
1495663258.25,39214,14.44,73464.8,-5.93,-6.63,-6.59,0,*5B
1495663259.45,39215,14.44,73466.3,-5.91,-6.59,-6.55,0,*5D
1495663260.65,39216,14.44,73468.5,-5.91,-6.59,-6.55,0,*5E
1495663261.88,39217,14.44,73464.8,-5.93,-6.59,-6.59,0,*51
1495663263.13,39218,14.44,73462.3,-5.93,-6.63,-6.51,0,*5F
1495663264.33,39219,14.44,73460.5,-5.91,-6.59,-6.59,0,*5D
1495663265.53,39220,14.44,73458.8,-5.91,-6.55,-6.55,0,*57
1495663266.78,39221,14.44,73458.5,-5.93,-6.59,-6.63,0,*5D
1495663268.03,39222,14.44,73456.8,-5.93,-6.59,-6.63,0,*5E
1495663269.23,39223,14.44,73454.0,-5.91,-6.69,-6.73,0,*5F
1495663270.45,39224,14.44,73458.0,-5.93,-6.77,-6.73,0,*55
1495663271.7,39225,14.44,73460.8,-5.93,-6.63,-6.59,0,*59
1495663272.9,39226,14.44,73464.8,-5.91,-6.47,-6.47,0,*51
1495663274.12,39227,14.44,73464.0,-5.89,-6.43,-6.39,0,*54
1495663275.35,39228,14.44,73464.8,-5.89,-6.51,-6.51,0,*56
1495663276.58,39229,14.44,73464.5,-5.89,-6.51,-6.51,0,*57
1495663277.78,39230,14.44,73466.0,-5.91,-6.55,-6.55,0,*56
1495663278.98,39231,14.44,73464.8,-5.91,-6.55,-6.47,0,*54
1495663280.21,39232,14.44,73462.3,-5.89,-6.51,-6.51,0,*5D
1495663281.43,39233,14.44,73464.0,-5.89,-6.39,-6.43,0,*51
1495663282.65,39234,14.44,73464.5,-5.89,-6.43,-6.43,0,*5B
1495663283.85,39235,14.44,73460.8,-5.91,-6.47,-6.47,0,*53
1495663285.05,39236,14.44,73462.5,-5.91,-6.55,-6.59,0,*5C
1495663286.28,39237,14.44,73462.3,-5.89,-6.55,-6.51,0,*5C
1495663287.51,39238,14.44,73464.8,-5.89,-6.51,-6.51,0,*57
1495663288.73,39239,14.44,73462.0,-5.89,-6.43,-6.43,0,*56
1495663289.95,39240,14.44,73468.3,-5.89,-6.39,-6.39,0,*58
1495663291.15,39241,14.44,73464.3,-5.87,-6.31,-6.43,0,*52
1495663292.34,39242,14.44,73466.8,-5.87,-6.39,-6.43,0,*59
1495663293.57,39243,14.44,73464.3,-5.89,-6.55,-6.51,0,*5F
1495663294.77,39244,14.44,73470.5,-5.87,-6.51,-6.51,0,*52
1495663296.0,39245,14.44,73460.3,-5.89,-6.55,-6.55,0,*5D
1495663297.23,39246,14.44,73464.8,-5.89,-6.51,-6.51,0,*5E
1495663298.45,39247,14.44,73464.3,-5.89,-6.55,-6.55,0,*5F
1495663299.68,39248,14.44,73466.3,-5.89,-6.43,-6.51,0,*53
1495663300.87,39249,14.44,73462.3,-5.87,-6.39,-6.43,0,*52
1495663302.1,39250,14.44,73462.8,-5.89,-6.51,-6.51,0,*59
1495663303.33,39251,14.44,73462.3,-5.89,-6.55,-6.55,0,*58
1495663304.55,39252,14.44,73466.0,-5.87,-6.55,-6.63,0,*50
1495663305.79,39253,14.44,73464.3,-5.89,-6.63,-6.69,0,*50
1495663307.03,39254,14.44,73464.8,-5.89,-6.69,-6.63,0,*57
1495663308.27,39255,14.44,73462.0,-5.87,-6.63,-6.63,0,*52
1495663309.5,39256,14.44,73460.0,-5.87,-6.55,-6.63,0,*54
1495663310.74,39257,14.44,73466.0,-5.89,-6.63,-6.69,0,*54
1495663311.92,39258,14.44,73460.5,-5.87,-6.69,-6.69,0,*5F
1495663313.11,39259,14.44,73458.3,-5.87,-6.69,-6.69,0,*5E
1495663314.33,39260,14.44,73456.5,-5.89,-6.69,-6.69,0,*5A
1495663315.52,39261,14.44,73446.0,-5.87,-6.69,-6.69,0,*55
1495663316.76,39262,14.44,73446.5,-5.89,-6.63,-6.55,0,*5D
1495663317.98,39263,14.44,73454.5,-5.89,-6.55,-6.55,0,*59
1495663319.17,39264,14.44,73456.0,-5.87,-6.69,-6.69,0,*50
1495663320.39,39265,14.44,73454.5,-5.87,-6.63,-6.55,0,*54
1495663321.62,39266,14.44,73460.3,-5.89,-6.55,-6.55,0,*5C
1495663322.86,39267,14.44,73462.0,-5.89,-6.63,-6.51,0,*5C
1495663324.06,39268,14.44,73464.3,-5.87,-6.55,-6.55,0,*5C
1495663325.26,39269,14.44,73464.5,-5.87,-6.43,-6.39,0,*50
1495663326.45,39270,14.44,73460.3,-5.87,-6.39,-6.43,0,*58
1495663327.65,39271,14.44,73460.3,-5.87,-6.39,-6.43,0,*59
1495663328.85,39272,14.44,73464.8,-5.87,-6.43,-6.43,0,*57
1495663330.05,39273,14.44,73460.3,-5.87,-6.39,-6.39,0,*56
1495663331.24,39274,14.44,73460.3,-5.87,-6.39,-6.39,0,*51
1495663332.44,39275,14.44,73464.3,-5.87,-6.43,-6.51,0,*53
1495663333.64,39276,14.44,73460.8,-5.87,-6.43,-6.43,0,*53
1495663334.86,39277,14.44,73460.3,-5.85,-6.39,-6.35,0,*5C
1495663336.08,39278,14.44,73464.5,-5.85,-6.47,-6.47,0,*5F
1495663337.28,39279,14.44,73462.5,-5.83,-6.59,-6.51,0,*50
1495663338.5,39280,14.44,73466.5,-5.85,-6.59,-6.51,0,*50
1495663339.72,39281,14.44,73462.3,-5.85,-6.59,-6.59,0,*59
1495663340.92,39282,14.44,73464.3,-5.87,-6.55,-6.55,0,*58
1495663342.11,39283,14.44,73464.0,-5.87,-6.69,-6.69,0,*59
1495663343.35,39284,14.44,73464.3,-5.87,-6.63,-6.63,0,*5E
1495663344.55,39285,14.44,73464.8,-5.87,-6.73,-6.69,0,*54
1495663345.76,39286,14.44,73466.3,-5.85,-6.69,-6.69,0,*5E
1495663347.02,39287,14.44,73464.0,-5.85,-6.63,-6.63,0,*5F
1495663348.24,39288,14.44,73462.8,-5.85,-6.59,-6.59,0,*50
1495663349.48,39289,14.44,73466.0,-5.83,-6.63,-6.63,0,*57
1495663350.71,39290,14.44,73464.5,-5.85,-6.59,-6.59,0,*59
1495663351.97,39291,14.44,73462.3,-5.85,-6.63,-6.63,0,*58
1495663353.21,39292,14.44,73464.3,-5.85,-6.63,-6.59,0,*52
1495663354.47,39293,14.44,73462.0,-5.85,-6.63,-6.63,0,*5A
1495663355.74,39294,14.44,73462.8,-5.85,-6.63,-6.63,0,*5D
1495663356.95,39295,14.44,73464.5,-5.85,-6.69,-6.69,0,*5C
1495663358.16,39296,14.44,73464.3,-5.85,-6.69,-6.69,0,*5F
1495663359.35,39297,14.44,73470.0,-5.87,-6.73,-6.73,0,*5C
1495663360.56,39298,14.44,73466.0,-5.87,-6.73,-6.81,0,*5E
1495663361.8,39299,14.44,73464.8,-5.85,-6.69,-6.63,0,*5A
1495663363.02,39300,14.44,73468.0,-5.87,-6.55,-6.63,0,*56
1495663364.21,39301,14.44,73470.8,-5.87,-6.69,-6.69,0,*52
1495663365.45,39302,14.44,73466.8,-5.89,-6.69,-6.63,0,*55
1495663366.67,39303,14.44,73464.8,-5.87,-6.63,-6.55,0,*55
1495663367.9,39304,14.44,73466.8,-5.85,-6.59,-6.59,0,*55
1495663369.12,39305,14.44,73470.0,-5.87,-6.69,-6.63,0,*5C
1495663370.38,39306,14.44,73468.8,-5.85,-6.63,-6.63,0,*57
1495663371.6,39307,14.44,73466.8,-5.85,-6.59,-6.59,0,*56
1495663372.83,39308,14.44,73464.8,-5.85,-6.51,-6.59,0,*51
1495663374.05,39309,14.44,73466.5,-5.85,-6.59,-6.51,0,*50
1495663375.27,39310,14.44,73464.8,-5.85,-6.59,-6.59,0,*50
1495663376.5,39311,14.44,73464.5,-5.85,-6.51,-6.59,0,*59
1495663377.72,39312,14.44,73464.8,-5.85,-6.59,-6.59,0,*52
1495663378.96,39313,14.44,73466.3,-5.85,-6.59,-6.63,0,*5A
1495663380.18,39314,14.44,73470.3,-5.85,-6.47,-6.59,0,*5B
1495663381.45,39315,14.44,73468.3,-5.85,-6.63,-6.63,0,*55
1495663382.71,39316,14.44,73466.3,-5.85,-6.63,-6.63,0,*56
1495663383.92,39317,14.44,73466.3,-5.85,-6.69,-6.69,0,*57
1495663385.13,39318,14.44,73468.3,-5.85,-6.69,-6.69,0,*58
1495663386.32,39319,14.44,73468.0,-5.87,-6.69,-6.69,0,*5B
1495663387.56,39320,14.44,73466.0,-5.85,-6.63,-6.69,0,*59
1495663388.74,39321,14.44,73464.5,-5.83,-6.69,-6.69,0,*54
1495663389.96,39322,14.44,73468.5,-5.85,-6.77,-6.77,0,*51
1495663391.18,39323,14.44,73462.8,-5.85,-6.69,-6.77,0,*5F
1495663392.4,39324,14.44,73468.0,-5.85,-6.89,-6.81,0,*5F
1495663393.62,39325,14.44,73464.8,-5.87,-6.85,-6.93,0,*53
1495663394.87,39326,14.44,73462.8,-5.87,-6.97,-6.97,0,*57
1495663396.1,39327,14.44,73464.5,-5.87,-6.93,-6.85,0,*51
1495663397.35,39328,14.44,73464.3,-5.87,-6.97,-6.97,0,*59
1495663398.59,39329,14.44,73464.8,-5.87,-7.05,-6.97,0,*52
1495663399.81,39330,14.44,73464.8,-5.89,-6.85,-6.85,0,*5E
1495663401.09,39331,14.44,73464.8,-5.89,-6.93,-6.97,0,*5B
1495663402.35,39332,14.44,73470.8,-5.89,-6.97,-7.05,0,*56
1495663403.6,39333,14.44,73468.5,-5.89,-6.85,-6.97,0,*5E
1495663404.85,39334,14.44,73466.3,-5.87,-6.93,-6.93,0,*54
1495663406.12,39335,14.44,73470.3,-5.89,-6.97,-7.05,0,*51
1495663407.39,39336,14.44,73468.0,-5.89,-6.97,-6.97,0,*58
1495663408.64,39337,14.44,73470.0,-5.91,-7.01,-7.01,0,*50
1495663409.91,39338,14.44,73468.5,-5.89,-6.97,-6.97,0,*56
1495663411.15,39339,14.44,73470.8,-5.89,-6.85,-6.93,0,*50
1495663412.43,39340,14.44,73462.5,-5.89,-6.93,-6.97,0,*5D
1495663413.68,39341,14.44,73470.0,-5.89,-6.93,-6.85,0,*5F
1495663414.9,39342,14.44,73466.0,-5.89,-6.73,-6.73,0,*5B
1495663416.13,39343,14.44,73470.3,-5.89,-6.81,-6.81,0,*5A
1495663417.37,39344,14.44,73464.3,-5.89,-6.85,-6.93,0,*5A
1495663418.6,39345,14.44,73466.0,-5.91,-6.97,-6.89,0,*5A
1495663419.84,39346,14.44,73464.5,-5.91,-7.01,-6.97,0,*58
1495663421.09,39347,14.44,73466.5,-5.93,-7.05,-7.15,0,*54
1495663422.3,39348,14.44,73468.8,-5.91,-7.11,-7.11,0,*58
1495663423.53,39349,14.44,73468.3,-5.93,-7.19,-7.19,0,*5B
1495663424.73,39350,14.44,73468.8,-5.91,-7.15,-7.15,0,*51
1495663425.93,39351,14.44,73470.0,-5.91,-7.15,-7.15,0,*50
1495663427.18,39352,14.44,73468.5,-5.91,-7.01,-7.01,0,*53
1495663428.45,39353,14.44,73470.3,-5.93,-7.05,-7.05,0,*50
1495663429.68,39354,14.44,73468.8,-5.93,-7.15,-7.15,0,*57
1495663430.9,39355,14.44,73470.3,-5.93,-7.15,-7.15,0,*56
1495663432.13,39356,14.44,73474.0,-5.93,-7.19,-7.19,0,*55
1495663433.39,39357,14.44,73468.0,-5.93,-7.19,-7.31,0,*5E
1495663434.6,39358,14.44,73470.0,-5.95,-7.19,-7.19,0,*5D
1495663435.8,39359,14.44,73468.0,-5.95,-7.19,-7.15,0,*50
1495663437.04,39360,14.44,73470.5,-5.97,-7.01,-6.93,0,*5E
1495663438.29,39361,14.44,73468.3,-5.95,-7.05,-7.05,0,*57
1495663439.51,39362,14.44,73466.8,-5.95,-7.27,-7.19,0,*59
1495663440.75,39363,14.44,73470.0,-5.97,-7.27,-7.27,0,*57
1495663441.95,39364,14.44,73464.8,-5.97,-7.19,-7.19,0,*50
1495663443.2,39365,14.44,73464.3,-5.95,-7.05,-7.05,0,*53
1495663444.45,39366,14.44,73468.0,-5.95,-7.05,-7.01,0,*54
1495663445.69,39367,14.44,73470.3,-5.95,-7.01,-7.05,0,*55
1495663446.93,39368,14.44,73470.3,-5.95,-6.93,-6.81,0,*5D
1495663448.17,39369,14.44,73470.3,-5.97,-6.93,-7.01,0,*57
1495663449.39,39370,14.44,73470.0,-5.97,-6.93,-6.89,0,*5E
1495663450.6,39371,14.44,73472.0,-5.95,-6.89,-6.81,0,*5E
1495663451.85,39372,14.44,73468.8,-5.95,-7.01,-6.93,0,*5F
1495663453.09,39373,14.44,73470.5,-5.97,-6.93,-6.93,0,*56
1495663454.33,39374,14.44,73470.8,-5.97,-7.01,-7.01,0,*51
1495663455.59,39375,14.44,73470.3,-5.95,-7.01,-7.01,0,*52
1495663456.83,39376,14.44,73468.3,-5.97,-7.05,-7.01,0,*57
1495663458.06,39377,14.44,73470.8,-5.97,-7.05,-7.05,0,*52
1495663459.3,39378,14.44,73470.8,-5.95,-7.05,-7.05,0,*5F
1495663460.52,39379,14.44,73470.8,-5.97,-7.05,-7.15,0,*5D
1495663461.76,39380,14.44,73468.3,-5.97,-7.05,-7.05,0,*5A
1495663462.99,39381,14.44,73468.5,-5.97,-7.01,-7.05,0,*5F
1495663464.23,39382,14.44,73466.5,-5.97,-7.05,-7.01,0,*5C
1495663465.43,39383,14.44,73466.3,-5.97,-7.15,-7.15,0,*59
1495663466.65,39384,14.44,73468.5,-5.99,-7.11,-7.19,0,*58
1495663467.86,39385,14.44,73464.5,-5.97,-7.15,-7.05,0,*5E
1495663469.08,39386,14.44,73464.5,-5.97,-7.15,-7.05,0,*5D
1495663470.3,39387,14.44,73468.0,-5.99,-7.19,-7.19,0,*53
1495663471.52,39388,14.44,73468.3,-5.99,-7.19,-7.19,0,*5C
1495663472.79,39389,14.44,73470.5,-5.99,-7.31,-7.31,0,*5D
1495663474.01,39390,14.44,73468.3,-5.99,-7.23,-7.23,0,*55
1495663475.23,39391,14.44,73468.8,-5.99,-7.11,-7.11,0,*54
1495663476.43,39392,14.44,73470.8,-5.97,-7.15,-7.19,0,*55
1495663477.67,39393,14.44,73470.5,-5.99,-7.23,-7.31,0,*55
1495663478.91,39394,14.44,73470.5,-6.01,-7.31,-7.31,0,*53
1495663480.16,39395,14.44,73472.5,-6.01,-7.35,-7.31,0,*56
1495663481.38,39396,14.44,73468.8,-6.01,-7.31,-7.23,0,*52
1495663482.58,39397,14.44,73472.3,-6.01,-7.23,-7.23,0,*50
1495663483.77,39398,14.44,73470.0,-6.01,-7.23,-7.23,0,*5F
1495663484.97,39399,14.44,73470.0,-6.01,-7.23,-7.19,0,*57
1495663486.17,39400,14.44,73468.0,-6.01,-7.23,-7.23,0,*59
1495663487.41,39401,14.44,73472.3,-6.05,-7.35,-7.35,0,*5C
1495663488.66,39402,14.44,73470.8,-6.05,-7.27,-7.27,0,*5F
1495663489.86,39403,14.44,73468.3,-6.05,-7.23,-7.23,0,*5E
1495663491.08,39404,14.44,73468.8,-6.05,-7.27,-7.15,0,*58
1495663492.3,39405,14.44,73468.8,-6.05,-7.27,-7.23,0,*5C
1495663493.5,39406,14.44,73468.3,-6.05,-7.23,-7.23,0,*5B
1495663494.73,39407,14.44,73470.0,-6.07,-7.19,-7.19,0,*58
1495663495.95,39408,14.44,73470.5,-6.05,-7.01,-7.15,0,*50
1495663497.2,39409,14.44,73468.8,-6.05,-6.97,-7.01,0,*5A
1495663498.43,39410,14.44,73468.3,-6.05,-7.11,-7.01,0,*5D
1495663499.69,39411,14.44,73468.8,-6.07,-7.05,-7.05,0,*5F
1495663500.92,39412,14.44,73468.8,-6.07,-7.15,-7.15,0,*5C
1495663502.17,39413,14.44,73468.5,-6.07,-7.19,-7.27,0,*50
1495663503.43,39414,14.44,73466.3,-6.07,-7.19,-7.27,0,*57
1495663504.7,39415,14.44,73470.8,-6.07,-7.27,-7.27,0,*5B
1495663505.97,39416,14.44,73466.8,-6.07,-7.39,-7.39,0,*58
1495663507.21,39417,14.44,73464.3,-6.05,-7.27,-7.35,0,*58
1495663508.48,39418,14.44,73464.5,-6.07,-7.31,-7.31,0,*56
1495663509.75,39419,14.44,73466.0,-6.07,-7.01,-7.01,0,*57
1495663511.02,39420,14.44,73462.5,-6.07,-7.01,-7.01,0,*5D
1495663512.3,39421,14.44,73462.5,-6.07,-7.01,-7.01,0,*5C
1495663513.54,39422,14.44,73464.0,-6.07,-7.15,-7.05,0,*5E
1495663514.76,39423,14.44,73466.5,-6.07,-7.15,-7.19,0,*52
1495663515.97,39424,14.44,73466.3,-6.05,-7.11,-7.11,0,*5B
1495663517.2,39425,14.44,73466.5,-6.07,-7.19,-7.19,0,*58
1495663518.4,39426,14.44,73466.5,-6.05,-7.11,-7.15,0,*5D
1495663519.65,39427,14.44,73464.8,-6.07,-7.05,-7.15,0,*5B
1495663520.9,39428,14.44,73460.8,-6.07,-7.05,-7.15,0,*54
1495663522.15,39429,14.44,73466.8,-6.07,-7.05,-7.19,0,*59
1495663523.37,39430,14.44,73466.5,-6.07,-7.15,-7.19,0,*50
1495663524.63,39431,14.44,73462.3,-6.07,-7.19,-7.27,0,*50
1495663525.89,39432,14.44,73462.0,-6.07,-7.39,-7.39,0,*5E
1495663527.16,39433,14.44,73462.5,-6.07,-7.39,-7.39,0,*5F
1495663528.43,39434,14.44,73466.8,-6.07,-7.31,-7.31,0,*58
1495663529.7,39435,14.44,73460.8,-6.07,-7.31,-7.31,0,*59
1495663530.94,39436,14.44,73464.5,-6.09,-7.05,-7.05,0,*54
1495663532.16,39437,14.44,73466.3,-6.09,-7.15,-7.05,0,*54
1495663533.38,39438,14.44,73468.8,-6.09,-7.05,-7.15,0,*5B
1495663534.63,39439,14.44,73468.8,-6.09,-6.93,-6.93,0,*5B
1495663535.82,39440,14.44,73470.8,-6.09,-6.89,-6.89,0,*55
1495663537.02,39441,14.44,73466.5,-6.09,-6.89,-6.89,0,*54
1495663538.22,39442,14.44,73466.0,-6.09,-6.89,-6.85,0,*5B
1495663539.44,39443,14.44,73470.8,-6.07,-6.85,-6.85,0,*58
1495663540.63,39444,14.44,73466.0,-6.05,-6.85,-6.89,0,*51
1495663541.86,39445,14.44,73462.5,-6.07,-6.85,-6.85,0,*5E
1495663543.05,39446,14.44,73464.3,-6.05,-6.81,-6.85,0,*5B
1495663544.26,39447,14.44,73460.8,-6.05,-6.85,-6.81,0,*5A
1495663545.46,39448,14.44,73464.3,-6.05,-6.73,-6.81,0,*5C
1495663546.66,39449,14.44,73460.5,-6.05,-6.85,-6.81,0,*54
1495663547.85,39450,14.44,73462.0,-6.05,-6.85,-6.85,0,*58
1495663549.1,39451,14.44,73460.8,-6.05,-6.97,-6.97,0,*59
1495663550.37,39452,14.44,73456.5,-6.07,-7.01,-7.01,0,*58
1495663551.58,39453,14.44,73454.0,-6.05,-7.11,-7.11,0,*5B
1495663552.78,39454,14.44,73454.5,-6.05,-7.11,-7.11,0,*5C
1495663554.05,39455,14.44,73456.3,-6.07,-7.05,-7.05,0,*5F
1495663555.27,39456,14.44,73456.0,-6.05,-6.97,-6.89,0,*51
1495663556.52,39457,14.44,73458.0,-6.05,-7.01,-7.01,0,*5F
1495663557.76,39458,14.44,73460.5,-6.05,-7.05,-7.01,0,*54
1495663558.98,39459,14.44,73466.8,-6.05,-6.89,-6.97,0,*5E
1495663560.18,39460,14.44,73464.8,-6.05,-6.81,-6.89,0,*53
1495663561.38,39461,14.44,73456.3,-6.05,-6.85,-6.89,0,*56
1495663562.65,39462,14.44,73456.0,-6.07,-6.93,-6.93,0,*5B
1495663563.89,39463,14.44,73458.5,-6.01,-6.63,-6.63,0,*5C
1495663565.08,39464,14.44,73456.3,-6.01,-6.69,-6.69,0,*5B
1495663566.28,39465,14.44,73458.8,-6.01,-6.63,-6.69,0,*50
1495663567.48,39466,14.44,73454.5,-6.01,-6.81,-6.77,0,*50
1495663568.75,39467,14.44,73462.3,-5.99,-6.93,-6.93,0,*5A
1495663570.0,39468,14.44,73464.0,-6.01,-6.93,-6.97,0,*53
1495663571.23,39469,14.44,73456.0,-6.01,-7.05,-7.05,0,*56
1495663572.45,39470,14.44,73460.3,-6.01,-7.05,-7.11,0,*5B
1495663573.7,39471,14.44,73458.3,-6.01,-6.97,-6.97,0,*5F
1495663574.89,39472,14.44,73466.3,-6.01,-6.85,-6.85,0,*5C
1495663576.11,39473,14.44,73460.8,-6.01,-6.85,-6.93,0,*5A
1495663577.32,39474,14.44,73460.0,-6.01,-6.85,-6.93,0,*5D
1495663578.57,39475,14.44,73452.8,-6.01,-6.93,-6.93,0,*5B
1495663579.76,39476,14.44,73458.8,-6.01,-6.85,-6.85,0,*58
1495663580.95,39477,14.44,73458.8,-6.01,-6.85,-6.85,0,*59
1495663582.16,39478,14.44,73458.8,-6.01,-6.81,-6.81,0,*56
1495663583.35,39479,14.44,73462.3,-6.01,-6.69,-6.77,0,*58
1495663584.57,39480,14.44,73456.5,-5.99,-6.77,-6.81,0,*5A
1495663585.77,39481,14.44,73458.3,-6.01,-6.81,-6.81,0,*50
1495663587.0,39482,14.44,73452.3,-5.99,-6.81,-6.81,0,*51
1495663588.22,39483,14.44,73454.5,-6.01,-6.93,-6.85,0,*55
1495663589.49,39484,14.44,73460.0,-5.99,-6.97,-6.93,0,*53
1495663590.73,39485,14.44,73456.0,-6.01,-7.05,-6.97,0,*5E
1495663591.97,39486,14.44,73458.5,-6.01,-7.05,-6.93,0,*59
1495663593.19,39487,14.44,73456.8,-5.99,-6.85,-6.85,0,*54
1495663594.38,39488,14.44,73458.8,-6.01,-6.81,-6.85,0,*5D
1495663595.59,39489,14.44,73462.5,-6.01,-6.81,-6.81,0,*58
1495663596.81,39490,14.44,73458.5,-5.99,-6.55,-6.55,0,*52
1495663598.03,39491,14.44,73456.5,-5.99,-6.55,-6.55,0,*53
1495663599.22,39492,14.44,73458.0,-6.01,-6.55,-6.55,0,*52
1495663600.42,39493,14.44,73462.3,-5.97,-6.51,-6.51,0,*5F
1495663601.67,39494,14.44,73460.3,-5.99,-6.55,-6.63,0,*53
1495663602.89,39495,14.44,73458.8,-5.99,-6.51,-6.43,0,*54
1495663604.09,39496,14.44,73460.3,-5.97,-6.35,-6.35,0,*5A
1495663605.29,39497,14.44,73464.0,-5.97,-6.51,-6.47,0,*5C
1495663606.48,39498,14.44,73460.0,-5.97,-6.47,-6.47,0,*54
1495663607.67,39499,14.44,73462.0,-5.97,-6.47,-6.47,0,*55
1495663608.89,39500,14.44,73462.0,-5.95,-6.63,-6.73,0,*57
1495663610.09,39501,14.44,73456.5,-5.95,-6.73,-6.77,0,*53
1495663611.28,39502,14.44,73462.0,-5.97,-6.73,-6.73,0,*56
1495663612.5,39503,14.44,73462.8,-5.97,-6.63,-6.59,0,*5E
1495663613.7,39504,14.44,73460.0,-5.95,-6.59,-6.59,0,*52
1495663614.92,39505,14.44,73460.8,-5.95,-6.63,-6.77,0,*56
1495663616.15,39506,14.44,73462.3,-5.95,-6.77,-6.63,0,*55
1495663617.36,39507,14.44,73462.0,-5.95,-6.59,-6.51,0,*59
1495663618.6,39508,14.44,73464.0,-5.93,-6.63,-6.59,0,*51
1495663619.85,39509,14.44,73462.5,-5.93,-6.63,-6.59,0,*50
1495663621.08,39510,14.44,73462.5,-5.93,-6.51,-6.59,0,*59
1495663622.31,39511,14.44,73464.3,-5.93,-6.35,-6.47,0,*55
1495663623.54,39512,14.44,73464.5,-5.93,-6.39,-6.47,0,*5A
1495663624.77,39513,14.44,73466.8,-5.93,-6.51,-6.47,0,*55
1495663626.0,39514,14.44,73462.5,-5.93,-6.51,-6.47,0,*52
1495663627.2,39515,14.44,73464.0,-5.91,-6.47,-6.47,0,*56
1495663628.4,39516,14.44,73462.5,-5.91,-6.43,-6.43,0,*55
1495663629.62,39517,14.44,73462.3,-5.93,-6.47,-6.39,0,*5F
1495663630.82,39518,14.44,73460.0,-5.91,-6.47,-6.47,0,*5B
1495663632.02,39519,14.44,73462.3,-5.91,-6.47,-6.47,0,*5A
1495663633.22,39520,14.44,73456.8,-5.91,-6.55,-6.47,0,*53
1495663634.42,39521,14.44,73456.8,-5.91,-6.55,-6.59,0,*5D
1495663635.62,39522,14.44,73464.5,-5.91,-6.55,-6.59,0,*5E
1495663636.82,39523,14.44,73464.8,-5.91,-6.59,-6.59,0,*53
1495663638.02,39524,14.44,73466.0,-5.91,-6.47,-6.43,0,*50
1495663639.24,39525,14.44,73458.8,-5.89,-6.39,-6.39,0,*5C
1495663640.46,39526,14.44,73464.8,-5.89,-6.39,-6.39,0,*5F
1495663641.72,39527,14.44,73464.3,-5.89,-6.27,-6.27,0,*5E
1495663642.95,39528,14.44,73466.8,-5.89,-6.31,-6.31,0,*51
1495663644.15,39529,14.44,73468.0,-5.87,-6.39,-6.31,0,*56
1495663645.35,39530,14.44,73466.3,-5.87,-6.51,-6.55,0,*52
1495663646.58,39531,14.44,73466.0,-5.89,-6.51,-6.55,0,*5D
1495663647.8,39532,14.44,73464.8,-5.87,-6.63,-6.55,0,*51
1495663649.03,39533,14.44,73464.8,-5.89,-6.51,-6.51,0,*5B
1495663650.23,39534,14.44,73462.3,-5.87,-6.51,-6.55,0,*56
1495663651.44,39535,14.44,73456.3,-5.87,-6.51,-6.55,0,*57
1495663652.64,39536,14.44,73452.5,-5.87,-6.55,-6.51,0,*54
1495663653.84,39537,14.44,73452.5,-5.87,-6.51,-6.51,0,*51
1495663655.04,39538,14.44,73444.5,-5.87,-6.39,-6.39,0,*5E
1495663656.24,39539,14.44,73442.8,-5.87,-6.43,-6.51,0,*5C
1495663657.43,39540,14.44,73440.0,-5.87,-6.69,-6.69,0,*51
1495663658.64,39541,14.44,73448.0,-5.87,-6.63,-6.69,0,*5A
1495663659.85,39542,14.44,73450.8,-5.87,-6.51,-6.51,0,*53
1495663661.11,39543,14.44,73452.3,-5.85,-6.27,-6.23,0,*54
1495663662.35,39544,14.44,73452.0,-5.85,-6.39,-6.27,0,*58
1495663663.57,39545,14.44,73460.8,-5.85,-6.39,-6.35,0,*5A
1495663664.76,39546,14.44,73458.3,-5.83,-6.39,-6.39,0,*53
1495663665.98,39547,14.44,73460.3,-5.85,-6.39,-6.35,0,*58
1495663667.2,39548,14.44,73460.5,-5.83,-6.35,-6.27,0,*5E
1495663668.46,39549,14.44,73462.3,-5.85,-6.27,-6.27,0,*5A
1495663669.73,39550,14.44,73462.0,-5.85,-6.27,-6.23,0,*56
1495663670.97,39551,14.44,73460.5,-5.83,-6.27,-6.27,0,*55
1495663672.16,39552,14.44,73458.8,-5.83,-6.39,-6.35,0,*5A
1495663673.36,39553,14.44,73458.8,-5.83,-6.39,-6.35,0,*5B
1495663674.55,39554,14.44,73460.3,-5.83,-6.47,-6.47,0,*50
1495663675.75,39555,14.44,73458.5,-5.83,-6.51,-6.47,0,*56
1495663676.95,39556,14.44,73458.5,-5.83,-6.51,-6.47,0,*55
1495663678.16,39557,14.44,73458.3,-5.83,-6.51,-6.59,0,*5B
1495663679.36,39558,14.44,73456.0,-5.83,-6.51,-6.59,0,*54
1495663680.6,39559,14.44,73456.5,-5.83,-6.63,-6.63,0,*5D
1495663681.8,39560,14.44,73454.5,-5.79,-6.55,-6.59,0,*5E
1495663683.0,39561,14.44,73456.0,-5.79,-6.55,-6.47,0,*50
1495663684.2,39562,14.44,73460.5,-5.79,-6.43,-6.43,0,*50
1495663685.4,39563,14.44,73454.8,-5.79,-6.31,-6.31,0,*51
1495663686.63,39564,14.44,73458.5,-5.79,-6.23,-6.31,0,*55
1495663687.83,39565,14.44,73458.3,-5.79,-6.43,-6.47,0,*53
1495663689.03,39566,14.44,73454.3,-5.79,-6.43,-6.43,0,*54
1495663690.23,39567,14.44,73458.5,-5.79,-6.31,-6.35,0,*51
1495663691.44,39568,14.44,73458.0,-5.79,-6.35,-6.35,0,*5A
1495663692.64,39569,14.44,73454.3,-5.79,-6.35,-6.35,0,*5B
1495663693.85,39570,14.44,73456.5,-5.79,-6.35,-6.35,0,*53
1495663695.05,39571,14.44,73450.8,-5.79,-6.43,-6.47,0,*56
1495663696.27,39572,14.44,73448.8,-5.77,-6.47,-6.43,0,*5B
1495663697.49,39573,14.44,73448.3,-5.77,-6.55,-6.47,0,*5D
1495663698.72,39574,14.44,73452.3,-5.77,-6.59,-6.47,0,*56
1495663699.94,39575,14.44,73456.0,-5.77,-6.47,-6.43,0,*5C
1495663701.14,39576,14.44,73456.0,-5.79,-6.43,-6.35,0,*54
1495663702.34,39577,14.44,73454.0,-5.79,-6.31,-6.31,0,*54
1495663703.59,39578,14.44,73454.0,-5.79,-6.23,-6.23,0,*5B
1495663704.86,39579,14.44,73448.5,-5.77,-6.19,-6.19,0,*54
1495663706.13,39580,14.44,73448.5,-5.77,-6.19,-6.23,0,*5B